Showing default

SKYKRAFT-1, 55041

Orbit data source: Space-Track

SKYKRAFT-1, 55041 is a payload satellite owned by SkyKraft (AU) in SSO that was launched on Tue, 03 Jan 2023 UTC via an FALCON 9 launch vehicle from the Air Force Eastern Test Range (AFETR). Payload-class satellites include a variety of spacecraft equipped with specific instruments for various scientific and technological missions. These include communications satellites like Starlink; space stations such as the ISS; scientific satellites like the Hubble; Earth observation satellites from companies like Planet Labs, Umbra, and HawkEye 360; GPS; miniature CubeSats for education and research; and military/defense satellites.

Loading next visibility...
Identifier
55041, 2023-001AJ
Orbit
SSO
Country
Flag of AUAU / AUS
Related business
Manufacturer
SkyKraft
Mission
Operational Commercial Technology
Bus & Motor
SKYKRAFT CARRIER, AOCS
Mass
~100 kg wet, ~100 kg dry
Launch date (UTC)
2023-01-03 (3 years ago)
Launch vehicle
FALCON 9
Launch site
Air Force Eastern Test Range (AFETR)
Object type
Payload
Rocket body
Debris
Shape & HBR
Box, 0.3 m
Radar Cross Section
0.065 m², Large (>1 m²)

Expand to show TLE details & history
Last TLE update: 6 hours ago

TLE from 6 hours ago
0 SKYKRAFT-1
1 55041U 23001AJ  26166.26917199  .00043041  00000-0  41064-3 0  9996
2 55041  97.3189 243.4514 0004034  92.2497 267.9225 15.66650636192752
Epoch: 2026-06-15T06:27Z
TLE epoch observation values (Epoch: 2026-06-15T06:27:36.459Z)
Latitude
-0.0001°
Longitude
-117.00848°
Altitude
371.751 km
Speed
7.686 km/s
True Right ascension
16h 13m 48s
True Declination
0° 00' 00"
Sunlit
Object was in full shadow at epoch
Visualization orbit readout
Latitude
Unknown
Longitude
Unknown
Altitude
Unknown
Speed
Unknown
Apparent Right ascension
Unknown
Apparent Declination
Unknown
Sunlit
N/A
Visualization observer readout
Local Sidereal Time
22:47:30
Azimuth
Unknown
Elevation
Unknown
Doppler factor
Unknown
Orbital elements
Apogee altitude
368.116 km
Perigee altitude
362.676 km
Semi-major axis
6,743.533 km
Eccentricity
0.0004
Inclination
97.3189°
RAAN
243.4514°
Arg. of periapsis
92.2497°
True anomaly
267.8763°
Mean anomaly
267.9225°
Eccentric anomaly
267.8994°
Mean motion
3.91933 °/min
Orbital period
91.85 mins
BSTAR
0.00041064
Loading maneuver chart data...
Computing Atmospheric mass density...

Documentation

Showing up to 5 results
|